| time (UTC) | temp F | wind direction | speed MPH | gust MPH | rain 1hr in | rain 24hr in | rain mn in | humidity % | barometer mb |
| 20260831205027 | 85 | 123 | 1.0 | 2.0 | 0.00 | 0.13 | 0.00 | 81 | 1009.8 |
| 20260831204023 | 86 | 112 | 1.0 | 2.0 | 0.00 | 0.13 | 0.00 | 81 | 1010.0 |
| 20260831203020 | 86 | 97 | 1.0 | 2.0 | 0.00 | 0.13 | 0.00 | 80 | 1009.9 |
| 20260831202017 | 86 | 97 | 1.0 | 3.0 | 0.00 | 0.13 | 0.00 | 77 | 1010.1 |
| 20260831201053 | 87 | 137 | 1.0 | 3.0 | 0.00 | 0.13 | 0.00 | 74 | 1010.3 |
| 20260831200030 | 89 | 218 | 4.0 | 7.0 | 0.00 | 0.13 | 0.00 | 73 | 1010.9 |
| 20260831195026 | 91 | 217 | 4.0 | 9.0 | 0.00 | 0.13 | 0.00 | 73 | 1010.8 |
| 20260831194022 | 91 | 199 | 3.0 | 8.0 | 0.00 | 0.13 | 0.00 | 74 | 1010.7 |
| 20260831193019 | 91 | 220 | 3.0 | 8.0 | 0.00 | 0.13 | 0.00 | 75 | 1010.5 |
| 20260831192036 | 90 | 110 | 0.0 | 2.0 | 0.00 | 0.13 | 0.00 | 74 | 1010.3 |
| 20260831191031 | 91 | 169 | 1.0 | 2.0 | 0.00 | 0.13 | 0.00 | 74 | 1010.4 |
| 20260831190028 | 91 | 203 | 1.0 | 3.0 | 0.00 | 0.13 | 0.00 | 74 | 1010.4 |
| 20260831185024 | 91 | 203 | 2.0 | 3.0 | 0.00 | 0.13 | 0.00 | 74 | 1010.5 |
| 20260831184021 | 90 | 182 | 1.0 | 2.0 | 0.00 | 0.13 | 0.00 | 74 | 1010.4 |
| 20260831183017 | 91 | 90 | 2.0 | 6.0 | 0.00 | 0.13 | 0.00 | 73 | 1010.5 |
| 20260831182034 | 91 | 193 | 2.0 | 6.0 | 0.00 | 0.13 | 0.00 | 75 | 1010.6 |
| 20260831181031 | 90 | 184 | 1.0 | 3.0 | 0.00 | 0.13 | 0.00 | 75 | 1010.7 |
| 20260831180047 | 91 | 198 | 2.0 | 6.0 | 0.00 | 0.13 | 0.00 | 76 | 1010.8 |
| 20260831175023 | 91 | 182 | 2.0 | 6.0 | 0.00 | 0.13 | 0.00 | 77 | 1011.0 |
| 20260831174020 | 90 | 179 | 2.0 | 6.0 | 0.00 | 0.13 | 0.00 | 78 | 1011.1 |
| 20260831173017 | 89 | 170 | 2.0 | 4.0 | 0.00 | 0.13 | 0.00 | 78 | 1011.1 |
| 20260831172034 | 89 | 171 | 2.0 | 6.0 | 0.00 | 0.13 | 0.00 | 79 | 1011.5 |
| 20260831171030 | 88 | 128 | 2.0 | 6.0 | 0.00 | 0.13 | 0.00 | 80 | 1011.6 |
| 20260831170027 | 88 | 143 | 2.0 | 7.0 | 0.00 | 0.13 | 0.00 | 80 | 1011.5 |
| 20260831165024 | 88 | 205 | 2.0 | 6.0 | 0.00 | 0.13 | 0.00 | 82 | 1011.5 |
| 20260831164020 | 88 | 196 | 2.0 | 4.0 | 0.00 | 0.13 | 0.00 | 83 | 1011.5 |
| 20260831163017 | 88 | 221 | 3.0 | 7.0 | 0.00 | 0.13 | 0.00 | 84 | 1011.5 |
| 20260831162033 | 86 | 199 | 4.0 | 7.0 | 0.00 | 0.13 | 0.00 | 85 | 1011.4 |
| 20260831161030 | 85 | 197 | 2.0 | 4.0 | 0.00 | 0.13 | 0.00 | 85 | 1011.5 |
| 20260831160026 | 86 | 200 | 3.0 | 8.0 | 0.00 | 0.13 | 0.00 | 85 | 1011.3 |
| 20260831155024 | 86 | 237 | 2.0 | 7.0 | 0.00 | 0.13 | 0.00 | 87 | 1011.1 |
| 20260831154019 | 85 | 235 | 2.0 | 6.0 | 0.00 | 0.13 | 0.00 | 87 | 1011.0 |
| 20260831153035 | 84 | 217 | 3.0 | 7.0 | 0.00 | 0.13 | 0.00 | 88 | 1010.8 |
| 20260831152052 | 83 | 209 | 3.0 | 7.0 | 0.00 | 0.13 | 0.00 | 88 | 1010.8 |
| 20260831151029 | 82 | 195 | 2.0 | 6.0 | 0.00 | 0.13 | 0.00 | 89 | 1010.6 |
| 20260831150045 | 81 | 184 | 2.0 | 4.0 | 0.00 | 0.13 | 0.00 | 89 | 1010.6 |
| 20260831145022 | 80 | 175 | 2.0 | 4.0 | 0.00 | 0.13 | 0.00 | 90 | 1010.5 |
| 20260831144018 | 79 | 215 | 3.0 | 7.0 | 0.00 | 0.13 | 0.00 | 90 | 1010.5 |
| 20260831143035 | 78 | 185 | 1.0 | 3.0 | 0.00 | 0.13 | 0.00 | 91 | 1010.5 |
| 20260831142031 | 76 | 162 | 1.0 | 2.0 | 0.00 | 0.13 | 0.00 | 91 | 1010.3 |
| 20260831141028 | 77 | 219 | 2.0 | 4.0 | 0.00 | 0.13 | 0.00 | 91 | 1010.3 |
| 20260831140024 | 76 | 140 | 1.0 | 3.0 | 0.00 | 0.13 | 0.00 | 92 | 1010.3 |
| 20260831135021 | 74 | 0.0 | 0.0 | 0.00 | 0.13 | 0.00 | 92 | 1010.3 | |
| 20260831134037 | 73 | 0.0 | 0.0 | 0.00 | 0.13 | 0.00 | 92 | 1010.3 | |
| 20260831133034 | 71 | 0.0 | 0.0 | 0.00 | 0.13 | 0.00 | 92 | 1010.3 | |
| 20260831132110 | 70 | 0.0 | 0.0 | 0.00 | 0.13 | 0.00 | 92 | 1010.2 | |
| 20260831131027 | 69 | 0.0 | 0.0 | 0.00 | 0.13 | 0.00 | 92 | 1010.1 | |
| 20260831130044 | 67 | 0.0 | 0.0 | 0.00 | 0.13 | 0.00 | 92 | 1010.0 | |
| 20260831125020 | 65 | 0.0 | 0.0 | 0.00 | 0.13 | 0.00 | 92 | 1010.2 | |
| 20260831124017 | 64 | 0.0 | 0.0 | 0.00 | 0.13 | 0.00 | 92 | 1010.0 | |
| 20260831123035 | 63 | 0.0 | 0.0 | 0.00 | 0.13 | 0.00 | 92 | 1010.0 | |
| 20260831122029 | 62 | 0.0 | 0.0 | 0.00 | 0.13 | 0.00 | 92 | 1009.8 | |
| 20260831121026 | 62 | 0.0 | 0.0 | 0.00 | 0.13 | 0.00 | 92 | 1009.8 | |
| 20260831120022 | 61 | 0.0 | 0.0 | 0.00 | 0.13 | 0.00 | 92 | 1009.8 | |
| 20260831115039 | 61 | 0.0 | 0.0 | 0.00 | 0.13 | 0.00 | 92 | 1009.6 | |
| 20260831114017 | 61 | 0.0 | 0.0 | 0.00 | 0.13 | 0.00 | 92 | 1009.8 | |
| 20260831113052 | 61 | 0.0 | 0.0 | 0.00 | 0.13 | 0.00 | 92 | 1009.8 | |
| 20260831112049 | 61 | 0.0 | 0.0 | 0.00 | 0.13 | 0.00 | 92 | 1009.7 | |
| 20260831111025 | 62 | 0.0 | 0.0 | 0.00 | 0.13 | 0.00 | 92 | 1009.7 | |
| 20260831110022 | 62 | 0.0 | 0.0 | 0.00 | 0.13 | 0.00 | 92 | 1009.8 | |
| 20260831105038 | 62 | 0.0 | 0.0 | 0.00 | 0.13 | 0.00 | 92 | 1009.8 | |
| 20260831104115 | 62 | 0.0 | 0.0 | 0.00 | 0.13 | 0.00 | 92 | 1009.7 | |
| 20260831103032 | 62 | 0.0 | 0.0 | 0.00 | 0.13 | 0.00 | 92 | 1009.7 | |
| 20260831102028 | 62 | 0.0 | 0.0 | 0.00 | 0.13 | 0.00 | 92 | 1009.6 | |
| 20260831101045 | 62 | 0.0 | 0.0 | 0.00 | 0.13 | 0.00 | 92 | 1009.8 | |
| 20260831100022 | 62 | 0.0 | 0.0 | 0.00 | 0.13 | 0.00 | 92 | 1009.8 | |
| 20260831095020 | 62 | 0.0 | 0.0 | 0.00 | 0.13 | 0.00 | 92 | 1009.8 | |
| 20260831094055 | 62 | 0.0 | 0.0 | 0.00 | 0.13 | 0.00 | 92 | 1009.8 | |
| 20260831093031 | 63 | 0.0 | 0.0 | 0.00 | 0.13 | 0.00 | 92 | 1010.0 | |
| 20260831092028 | 63 | 0.0 | 0.0 | 0.00 | 0.13 | 0.00 | 92 | 1010.1 | |
| 20260831091023 | 63 | 0.0 | 0.0 | 0.00 | 0.13 | 0.00 | 92 | 1010.2 | |
| 20260831090020 | 63 | 0.0 | 0.0 | 0.00 | 0.13 | 0.00 | 92 | 1010.1 | |
| 20260831085037 | 63 | 0.0 | 0.0 | 0.00 | 0.13 | 0.00 | 92 | 1010.2 | |
| 20260831084034 | 64 | 0.0 | 0.0 | 0.00 | 0.13 | 0.00 | 92 | 1010.1 | |
| 20260831083030 | 64 | 0.0 | 0.0 | 0.00 | 0.13 | 0.00 | 92 | 1010.1 | |
| 20260831082028 | 64 | 0.0 | 0.0 | 0.00 | 0.13 | 0.00 | 92 | 1010.1 | |
| 20260831081025 | 64 | 0.0 | 0.0 | 0.00 | 0.13 | 0.00 | 92 | 1010.1 | |
| 20260831080019 | 65 | 0.0 | 0.0 | 0.00 | 0.13 | 0.00 | 91 | 1010.2 | |
| 20260831075016 | 65 | 0.0 | 0.0 | 0.00 | 0.13 | 0.00 | 91 | 1010.1 | |
| 20260831074034 | 66 | 0.0 | 0.0 | 0.00 | 0.13 | 0.00 | 91 | 1010.2 | |
| 20260831073031 | 66 | 0.0 | 0.0 | 0.00 | 0.13 | 0.00 | 91 | 1010.4 | |
| 20260831072028 | 66 | 0.0 | 0.0 | 0.00 | 0.13 | 0.00 | 91 | 1010.2 | |
| 20260831071025 | 66 | 0.0 | 0.0 | 0.00 | 0.13 | 0.00 | 91 | 1010.6 | |
| 20260831070021 | 67 | 0.0 | 0.0 | 0.00 | 0.13 | 0.00 | 91 | 1010.8 | |
| 20260831065018 | 67 | 0.0 | 0.0 | 0.00 | 0.13 | 0.00 | 91 | 1010.8 | |
| 20260831064035 | 67 | 0.0 | 0.0 | 0.00 | 0.13 | 0.00 | 91 | 1010.9 | |
| 20260831063031 | 66 | 0.0 | 0.0 | 0.00 | 0.13 | 0.00 | 91 | 1011.1 | |
| 20260831062026 | 66 | 0.0 | 0.0 | 0.00 | 0.13 | 0.00 | 91 | 1011.3 | |
| 20260831061024 | 66 | 0.0 | 0.0 | 0.00 | 0.13 | 0.00 | 91 | 1011.3 | |
| 20260831060021 | 66 | 138 | 0.0 | 1.0 | 0.00 | 0.13 | 0.00 | 91 | 1011.5 |
| 20260831055035 | 66 | 0.0 | 0.0 | 0.00 | 0.13 | 0.00 | 91 | 1011.6 | |
| 20260831054032 | 66 | 0.0 | 0.0 | 0.00 | 0.13 | 0.00 | 91 | 1011.6 | |
| 20260831053028 | 65 | 0.0 | 0.0 | 0.00 | 0.13 | 0.00 | 91 | 1011.7 | |
| 20260831052025 | 65 | 0.0 | 0.0 | 0.00 | 0.13 | 0.00 | 91 | 1011.8 | |
| 20260831051021 | 65 | 0.0 | 0.0 | 0.00 | 0.13 | 0.00 | 91 | 1011.9 | |
| 20260831050019 | 65 | 0.0 | 0.0 | 0.00 | 0.13 | 0.13 | 91 | 1011.9 | |
| 20260831045035 | 65 | 0.0 | 0.0 | 0.00 | 0.13 | 0.13 | 91 | 1012.0 | |
| 20260831044031 | 65 | 0.0 | 0.0 | 0.00 | 0.13 | 0.13 | 91 | 1012.0 | |
| 20260831043028 | 64 | 80 | 0.0 | 2.0 | 0.00 | 0.13 | 0.13 | 91 | 1012.0 |
| 20260831042024 | 64 | 129 | 0.0 | 1.0 | 0.00 | 0.13 | 0.13 | 90 | 1012.0 |
| 20260831041020 | 65 | 0.0 | 0.0 | 0.00 | 0.13 | 0.13 | 90 | 1012.1 | |
| 20260831040037 | 65 | 0.0 | 0.0 | 0.00 | 0.13 | 0.13 | 90 | 1012.2 | |
| 20260831035054 | 65 | 0.0 | 0.0 | 0.00 | 0.13 | 0.13 | 90 | 1012.3 | |
| 20260831034030 | 66 | 0.0 | 0.0 | 0.00 | 0.13 | 0.13 | 90 | 1012.5 | |
| 20260831033027 | 65 | 85 | 1.0 | 3.0 | 0.00 | 0.13 | 0.13 | 90 | 1012.4 |
| 20260831032023 | 65 | 128 | 0.0 | 1.0 | 0.00 | 0.13 | 0.13 | 90 | 1012.9 |
| 20260831031041 | 65 | 0.0 | 0.0 | 0.00 | 0.12 | 0.12 | 90 | 1013.0 | |
| 20260831030016 | 65 | 0.0 | 0.0 | 0.00 | 0.12 | 0.12 | 90 | 1013.0 | |
| 20260831025033 | 66 | 0.0 | 0.0 | 0.00 | 0.12 | 0.12 | 90 | 1013.1 | |
| 20260831024029 | 66 | 0.0 | 0.0 | 0.00 | 0.12 | 0.12 | 89 | 1013.2 | |
| 20260831023047 | 66 | 136 | 0.0 | 1.0 | 0.00 | 0.12 | 0.12 | 89 | 1013.1 |
| 20260831022143 | 67 | 0.0 | 0.0 | 0.00 | 0.12 | 0.12 | 89 | 1013.1 | |
| 20260831021018 | 68 | 0.0 | 0.0 | 0.00 | 0.12 | 0.12 | 89 | 1012.9 | |
| 20260831020034 | 68 | 0.0 | 0.0 | 0.00 | 0.12 | 0.12 | 89 | 1012.7 | |
| 20260831015031 | 69 | 114 | 0.0 | 2.0 | 0.00 | 0.12 | 0.12 | 89 | 1012.6 |
| 20260831014049 | 70 | 98 | 1.0 | 2.0 | 0.00 | 0.12 | 0.12 | 89 | 1012.3 |
| 20260831013024 | 70 | 0.0 | 0.0 | 0.00 | 0.12 | 0.12 | 89 | 1012.3 | |
| 20260831012021 | 71 | 93 | 1.0 | 2.0 | 0.00 | 0.12 | 0.12 | 88 | 1012.1 |
| 20260831011017 | 71 | 107 | 0.0 | 1.0 | 0.10 | 0.12 | 0.12 | 88 | 1011.8 |
| 20260831010033 | 72 | 121 | 1.0 | 2.0 | 0.12 | 0.12 | 0.12 | 88 | 1011.6 |
| 20260831005050 | 72 | 0.0 | 0.0 | 0.12 | 0.12 | 0.12 | 88 | 1011.4 | |
| 20260831004026 | 72 | 214 | 1.0 | 3.0 | 0.12 | 0.12 | 0.12 | 88 | 1010.9 |
| 20260831003024 | 72 | 91 | 0.0 | 2.0 | 0.12 | 0.12 | 0.12 | 87 | 1010.4 |
| 20260831002019 | 73 | 76 | 3.0 | 4.0 | 0.12 | 0.12 | 0.12 | 87 | 1010.3 |
| 20260831001016 | 73 | 309 | 3.0 | 7.0 | 0.02 | 0.02 | 0.02 | 87 | 1010.6 |
| 20260831000032 | 73 | 50 | 1.0 | 3.0 | 0.00 | 0.00 | 0.00 | 86 | 1010.6 |
| 20260830235028 | 73 | 79 | 3.0 | 6.0 | 0.00 | 0.00 | 0.00 | 86 | 1010.6 |
| 20260830234044 | 74 | 81 | 2.0 | 3.0 | 0.00 | 0.00 | 0.00 | 85 | 1011.1 |
| 20260830233021 | 75 | 95 | 0.0 | 2.0 | 0.00 | 0.00 | 0.00 | 85 | 1010.9 |
| 20260830232017 | 76 | 98 | 1.0 | 3.0 | 0.00 | 0.00 | 0.00 | 84 | 1010.8 |
| 20260830231033 | 76 | 155 | 0.0 | 1.0 | 0.00 | 0.00 | 0.00 | 84 | 1010.8 |
| 20260830230049 | 76 | 106 | 0.0 | 3.0 | 0.00 | 0.00 | 0.00 | 84 | 1010.8 |
| 20260830225025 | 77 | 113 | 1.0 | 4.0 | 0.00 | 0.00 | 0.00 | 83 | 1011.0 |
| 20260830224022 | 77 | 105 | 2.0 | 6.0 | 0.00 | 0.00 | 0.00 | 83 | 1011.0 |
| 20260830223019 | 77 | 156 | 1.0 | 4.0 | 0.00 | 0.00 | 0.00 | 82 | 1011.0 |
| 20260830222035 | 78 | 100 | 1.0 | 4.0 | 0.00 | 0.00 | 0.00 | 81 | 1010.9 |
| 20260830221031 | 79 | 124 | 1.0 | 2.0 | 0.00 | 0.00 | 0.00 | 81 | 1010.8 |
| 20260830220048 | 80 | 112 | 2.0 | 4.0 | 0.00 | 0.00 | 0.00 | 80 | 1010.5 |
| 20260830215024 | 81 | 89 | 2.0 | 9.0 | 0.00 | 0.00 | 0.00 | 79 | 1010.7 |
| 20260830214021 | 82 | 114 | 2.0 | 7.0 | 0.00 | 0.00 | 0.00 | 78 | 1010.5 |
| 20260830213017 | 82 | 159 | 2.0 | 6.0 | 0.00 | 0.00 | 0.00 | 78 | 1010.5 |
| 20260830212034 | 82 | 194 | 1.0 | 2.0 | 0.00 | 0.00 | 0.00 | 79 | 1010.7 |
| 20260830211030 | 82 | 212 | 3.0 | 7.0 | 0.00 | 0.00 | 0.00 | 79 | 1011.0 |
| 20260830210049 | 81 | 185 | 3.0 | 6.0 | 0.00 | 0.00 | 0.00 | 78 | 1011.1 |